User: anonymous   Login
Location: Fluertsh�userhof
(48.7537°N, 10.3850°E)
Time: 14:51:04
(UTC+00:00)
Language:

Cosmos 1269 Rocket - Orbit

View from above orbital plane
View from above orbital plane
View from above satellite
View from above satellite

Ground track
Ground track

The orbit data is extracted from the following two-line orbital elements,

1 12443U 81041B   20333.56848154 +.00000076 +00000-0 +35841-4 0  9998
2 12443 074.0561 020.6766 0004295 187.0295 173.0798 14.34742690068502
Epoch (UTC): 28 November 2020 13:38:36
Eccentricity: 0.0004295
inclination: 74.0561°
perigee height: 773 km
apogee height: 779 km
right ascension of ascending node: 20.6766°
argument of perigee: 187.0295°
revolutions per day: 14.34742690
mean anomaly at epoch: 173.0798°
orbit number at epoch: 6850

The dashed part of the orbit path shows where the satellite is in the earth's shadow,  

DLR